Location: Mahannah Oil Field
(37.4664°N, 96.6003°W)
Time: 08:30:10
(UTC+00:00)

Courier 1B - Pass Details

Date: 22 January 2021
Orbit: 962 x 1209 km, 28.3° (Epoch: 02 March)

Event Time Altitude Azimuth Distance (km) Brightness Sun altitude
Rises 07:49:38 0° 248° (WSW) 3,660 - -66.3°
Reaches altitude 10° 07:52:29 10° 240° (WSW) 2,697 - -65.9°
Maximum altitude 07:58:19 36° 175° (S) 1,465 - -65.0°
Drops below altitude 10° 08:04:10 10° 111° (ESE) 2,702 - -64.1°
Sets 08:07:02 0° 103° (ESE) 3,668 - -63.6°
